Location: The Saddle
(36.8333°N, 80.3417°W)
Time: 10:53:34
(UTC-04:00)

Vanguard 2 Rocket - Pass Details

Date: 04 February 2023
Orbit: 555 x 3316 km, 32.9° (Epoch: 25 March)

Event Time Altitude Azimuth Distance (km) Brightness Sun altitude
Rises 10:45:19 0° 248° (WSW) 3,682 9.9 31.0°
Reaches altitude 10° 10:48:30 10° 242° (WSW) 2,407 9.1 31.3°
Maximum altitude 10:53:26 42° 171° (S) 895 8.6 31.8°
Drops below altitude 10° 10:57:14 10° 99° (E) 1,847 9.1 32.2°
Sets 10:59:22 0° 92° (E) 2,719 9.7 32.4°
